owner,sensor,date,latitude,longitude,relative_humidity,qcFlag 
DISL,ioos:station:DISL:KATA:1,2017-08-01T00:00:00Z,30.2583,-88.2131,62.85,1111122 
DISL,ioos:station:DISL:KATA:1,2017-08-01T00:30:00Z,30.2583,-88.2131,68.76,1111122 
DISL,ioos:station:DISL:KATA:1,2017-08-01T01:00:00Z,30.2583,-88.2131,63.11,1111122 
DISL,ioos:station:DISL:KATA:1,2017-08-01T01:30:00Z,30.2583,-88.2131,62.8,1111122 
DISL,ioos:station:DISL:KATA:1,2017-08-01T02:00:00Z,30.2583,-88.2131,65.48,1111122 
DISL,ioos:station:DISL:KATA:1,2017-08-01T02:30:00Z,30.2583,-88.2131,65.14,1111122 
DISL,ioos:station:DISL:KATA:1,2017-08-01T03:00:00Z,30.2583,-88.2131,65.75,1111122 
DISL,ioos:station:DISL:KATA:1,2017-08-01T03:30:00Z,30.2583,-88.2131,66.6,1111122 
DISL,ioos:station:DISL:KATA:1,2017-08-01T04:00:00Z,30.2583,-88.2131,67.89,1111122 
DISL,ioos:station:DISL:KATA:1,2017-08-01T04:30:00Z,30.2583,-88.2131,66.63,1111122 
DISL,ioos:station:DISL:KATA:1,2017-08-01T05:00:00Z,30.2583,-88.2131,68.67,1111122 
DISL,ioos:station:DISL:KATA:1,2017-08-01T05:30:00Z,30.2583,-88.2131,69.45,1111122 
DISL,ioos:station:DISL:KATA:1,2017-08-01T06:00:00Z,30.2583,-88.2131,61.07,1111122 
DISL,ioos:station:DISL:KATA:1,2017-08-01T06:30:00Z,30.2583,-88.2131,61.14,1111122 
DISL,ioos:station:DISL:KATA:1,2017-08-01T07:00:00Z,30.2583,-88.2131,60.53,1111122 
DISL,ioos:station:DISL:KATA:1,2017-08-01T07:30:00Z,30.2583,-88.2131,59.72,1111122 
DISL,ioos:station:DISL:KATA:1,2017-08-01T08:00:00Z,30.2583,-88.2131,62.87,1111122 
DISL,ioos:station:DISL:KATA:1,2017-08-01T08:30:00Z,30.2583,-88.2131,63.0,1111122 
DISL,ioos:station:DISL:KATA:1,2017-08-01T09:00:00Z,30.2583,-88.2131,62.43,1111122 
DISL,ioos:station:DISL:KATA:1,2017-08-01T09:30:00Z,30.2583,-88.2131,66.06,1111122 
DISL,ioos:station:DISL:KATA:1,2017-08-01T10:00:00Z,30.2583,-88.2131,65.72,1111122 
DISL,ioos:station:DISL:KATA:1,2017-08-01T10:30:00Z,30.2583,-88.2131,68.94,1111122 
DISL,ioos:station:DISL:KATA:1,2017-08-01T11:00:00Z,30.2583,-88.2131,68.87,1111122 
DISL,ioos:station:DISL:KATA:1,2017-08-01T11:30:00Z,30.2583,-88.2131,71.99,1111122 
DISL,ioos:station:DISL:KATA:1,2017-08-01T12:00:00Z,30.2583,-88.2131,75.52,1111122 
DISL,ioos:station:DISL:KATA:1,2017-08-01T12:30:00Z,30.2583,-88.2131,73.35,1111122 
DISL,ioos:station:DISL:KATA:1,2017-08-01T13:00:00Z,30.2583,-88.2131,70.5,1111122 
DISL,ioos:station:DISL:KATA:1,2017-08-01T13:30:00Z,30.2583,-88.2131,74.47,1111122 
DISL,ioos:station:DISL:KATA:1,2017-08-01T14:00:00Z,30.2583,-88.2131,74.7,1111122 
DISL,ioos:station:DISL:KATA:1,2017-08-01T14:30:00Z,30.2583,-88.2131,74.91,1111122 
DISL,ioos:station:DISL:KATA:1,2017-08-01T15:00:00Z,30.2583,-88.2131,75.08,1111122 
DISL,ioos:station:DISL:KATA:1,2017-08-01T15:30:00Z,30.2583,-88.2131,70.23,1111122 
DISL,ioos:station:DISL:KATA:1,2017-08-01T16:00:00Z,30.2583,-88.2131,66.09,1111122 
DISL,ioos:station:DISL:KATA:1,2017-08-01T16:30:00Z,30.2583,-88.2131,63.31,1111122 
DISL,ioos:station:DISL:KATA:1,2017-08-01T17:00:00Z,30.2583,-88.2131,61.14,1111122 
DISL,ioos:station:DISL:KATA:1,2017-08-01T17:30:00Z,30.2583,-88.2131,60.39,1111122 
DISL,ioos:station:DISL:KATA:1,2017-08-01T18:00:00Z,30.2583,-88.2131,60.39,1111122 
DISL,ioos:station:DISL:KATA:1,2017-08-01T18:30:00Z,30.2583,-88.2131,55.91,1111122 
DISL,ioos:station:DISL:KATA:1,2017-08-01T19:00:00Z,30.2583,-88.2131,53.16,1111122 
DISL,ioos:station:DISL:KATA:1,2017-08-01T19:30:00Z,30.2583,-88.2131,54.92,1111122 
DISL,ioos:station:DISL:KATA:1,2017-08-01T20:00:00Z,30.2583,-88.2131,62.18,1111122 
DISL,ioos:station:DISL:KATA:1,2017-08-01T20:30:00Z,30.2583,-88.2131,59.84,1111122 
DISL,ioos:station:DISL:KATA:1,2017-08-01T21:00:00Z,30.2583,-88.2131,61.9,1111122 
DISL,ioos:station:DISL:KATA:1,2017-08-01T21:30:00Z,30.2583,-88.2131,64.71,1111122 
DISL,ioos:station:DISL:KATA:1,2017-08-01T22:00:00Z,30.2583,-88.2131,62.64,1111122 
DISL,ioos:station:DISL:KATA:1,2017-08-01T22:30:00Z,30.2583,-88.2131,61.93,1111122 
DISL,ioos:station:DISL:KATA:1,2017-08-01T23:00:00Z,30.2583,-88.2131,62.95,1111122 
DISL,ioos:station:DISL:KATA:1,2017-08-01T23:30:00Z,30.2583,-88.2131,64.96,1111122 
DISL,ioos:station:DISL:KATA:1,2017-08-02T00:00:00Z,30.2583,-88.2131,63.4,1111122 
DISL,ioos:station:DISL:KATA:1,2017-08-02T00:30:00Z,30.2583,-88.2131,63.55,1111122 
DISL,ioos:station:DISL:KATA:1,2017-08-02T01:00:00Z,30.2583,-88.2131,61.78,1111122 
DISL,ioos:station:DISL:KATA:1,2017-08-02T01:30:00Z,30.2583,-88.2131,59.17,1111122 
DISL,ioos:station:DISL:KATA:1,2017-08-02T02:00:00Z,30.2583,-88.2131,63.75,1111122 
DISL,ioos:station:DISL:KATA:1,2017-08-02T02:30:00Z,30.2583,-88.2131,58.22,1111122 
DISL,ioos:station:DISL:KATA:1,2017-08-02T03:00:00Z,30.2583,-88.2131,62.94,1111122 
DISL,ioos:station:DISL:KATA:1,2017-08-02T03:30:00Z,30.2583,-88.2131,57.31,1111122 
DISL,ioos:station:DISL:KATA:1,2017-08-02T04:00:00Z,30.2583,-88.2131,63.04,1111122 
DISL,ioos:station:DISL:KATA:1,2017-08-02T04:30:00Z,30.2583,-88.2131,64.06,1111122 
DISL,ioos:station:DISL:KATA:1,2017-08-02T05:00:00Z,30.2583,-88.2131,64.9,1111122 
DISL,ioos:station:DISL:KATA:1,2017-08-02T05:30:00Z,30.2583,-88.2131,63.38,1111122 
DISL,ioos:station:DISL:KATA:1,2017-08-02T06:00:00Z,30.2583,-88.2131,62.19,1111122 
DISL,ioos:station:DISL:KATA:1,2017-08-02T06:30:00Z,30.2583,-88.2131,65.65,1111122 
DISL,ioos:station:DISL:KATA:1,2017-08-02T07:00:00Z,30.2583,-88.2131,61.34,1111122 
DISL,ioos:station:DISL:KATA:1,2017-08-02T07:30:00Z,30.2583,-88.2131,60.8,1111122 
DISL,ioos:station:DISL:KATA:1,2017-08-02T08:00:00Z,30.2583,-88.2131,62.39,1111122 
DISL,ioos:station:DISL:KATA:1,2017-08-02T08:30:00Z,30.2583,-88.2131,60.63,1111122 
DISL,ioos:station:DISL:KATA:1,2017-08-02T09:00:00Z,30.2583,-88.2131,72.26,1111122 
DISL,ioos:station:DISL:KATA:1,2017-08-02T09:30:00Z,30.2583,-88.2131,74.47,1111122 
DISL,ioos:station:DISL:KATA:1,2017-08-02T10:00:00Z,30.2583,-88.2131,77.04,1111122 
DISL,ioos:station:DISL:KATA:1,2017-08-02T10:30:00Z,30.2583,-88.2131,80.6,1111122 
DISL,ioos:station:DISL:KATA:1,2017-08-02T11:00:00Z,30.2583,-88.2131,82.8,1111122 
DISL,ioos:station:DISL:KATA:1,2017-08-02T11:30:00Z,30.2583,-88.2131,86.5,1111122 
DISL,ioos:station:DISL:KATA:1,2017-08-02T12:00:00Z,30.2583,-88.2131,86.8,1111122 
DISL,ioos:station:DISL:KATA:1,2017-08-02T12:30:00Z,30.2583,-88.2131,86.9,1111122 
DISL,ioos:station:DISL:KATA:1,2017-08-02T13:00:00Z,30.2583,-88.2131,85.6,1111122 
DISL,ioos:station:DISL:KATA:1,2017-08-02T13:30:00Z,30.2583,-88.2131,74.27,1111122 
DISL,ioos:station:DISL:KATA:1,2017-08-02T14:00:00Z,30.2583,-88.2131,63.38,1111122 
DISL,ioos:station:DISL:KATA:1,2017-08-02T14:30:00Z,30.2583,-88.2131,57.54,1111122 
DISL,ioos:station:DISL:KATA:1,2017-08-02T15:00:00Z,30.2583,-88.2131,57.58,1111122 
DISL,ioos:station:DISL:KATA:1,2017-08-02T15:30:00Z,30.2583,-88.2131,61.61,1111122 
DISL,ioos:station:DISL:KATA:1,2017-08-02T16:00:00Z,30.2583,-88.2131,64.8,1111122 
DISL,ioos:station:DISL:KATA:1,2017-08-02T16:30:00Z,30.2583,-88.2131,63.23,1111122 
DISL,ioos:station:DISL:KATA:1,2017-08-02T17:00:00Z,30.2583,-88.2131,62.45,1111122 
DISL,ioos:station:DISL:KATA:1,2017-08-02T17:30:00Z,30.2583,-88.2131,61.43,1111122 
DISL,ioos:station:DISL:KATA:1,2017-08-02T18:00:00Z,30.2583,-88.2131,58.18,1111122 
DISL,ioos:station:DISL:KATA:1,2017-08-02T18:30:00Z,30.2583,-88.2131,60.58,1111122 
DISL,ioos:station:DISL:KATA:1,2017-08-02T19:00:00Z,30.2583,-88.2131,61.39,1111122 
DISL,ioos:station:DISL:KATA:1,2017-08-02T19:30:00Z,30.2583,-88.2131,57.39,1111122 
DISL,ioos:station:DISL:KATA:1,2017-08-02T20:00:00Z,30.2583,-88.2131,62.71,1111122 
DISL,ioos:station:DISL:KATA:1,2017-08-02T20:30:00Z,30.2583,-88.2131,57.97,1111122 
DISL,ioos:station:DISL:KATA:1,2017-08-02T21:00:00Z,30.2583,-88.2131,58.95,1111122 
DISL,ioos:station:DISL:KATA:1,2017-08-02T21:30:00Z,30.2583,-88.2131,57.76,1111122 
DISL,ioos:station:DISL:KATA:1,2017-08-02T22:00:00Z,30.2583,-88.2131,58.03,1111122 
DISL,ioos:station:DISL:KATA:1,2017-08-02T22:30:00Z,30.2583,-88.2131,58.88,1111122 
DISL,ioos:station:DISL:KATA:1,2017-08-02T23:00:00Z,30.2583,-88.2131,61.32,1111122 
DISL,ioos:station:DISL:KATA:1,2017-08-02T23:30:00Z,30.2583,-88.2131,58.0,1111122 
DISL,ioos:station:DISL:KATA:1,2017-08-03T00:00:00Z,30.2583,-88.2131,57.88,1111122 
DISL,ioos:station:DISL:KATA:1,2017-08-03T00:30:00Z,30.2583,-88.2131,61.82,1111122 
DISL,ioos:station:DISL:KATA:1,2017-08-03T01:00:00Z,30.2583,-88.2131,60.33,1111122 
DISL,ioos:station:DISL:KATA:1,2017-08-03T01:30:00Z,30.2583,-88.2131,61.28,1111122 
DISL,ioos:station:DISL:KATA:1,2017-08-03T02:00:00Z,30.2583,-88.2131,64.26,1111122 
DISL,ioos:station:DISL:KATA:1,2017-08-03T02:30:00Z,30.2583,-88.2131,65.14,1111122 
DISL,ioos:station:DISL:KATA:1,2017-08-03T03:00:00Z,30.2583,-88.2131,63.99,1111122 
DISL,ioos:station:DISL:KATA:1,2017-08-03T03:30:00Z,30.2583,-88.2131,62.36,1111122 
DISL,ioos:station:DISL:KATA:1,2017-08-03T04:00:00Z,30.2583,-88.2131,63.92,1111122 
DISL,ioos:station:DISL:KATA:1,2017-08-03T04:30:00Z,30.2583,-88.2131,69.82,1111122 
DISL,ioos:station:DISL:KATA:1,2017-08-03T05:00:00Z,30.2583,-88.2131,70.46,1111122 
DISL,ioos:station:DISL:KATA:1,2017-08-03T05:30:00Z,30.2583,-88.2131,55.21,1111122 
DISL,ioos:station:DISL:KATA:1,2017-08-03T06:00:00Z,30.2583,-88.2131,63.21,1111122 
DISL,ioos:station:DISL:KATA:1,2017-08-03T06:30:00Z,30.2583,-88.2131,65.23,1111122 
DISL,ioos:station:DISL:KATA:1,2017-08-03T07:00:00Z,30.2583,-88.2131,65.3,1111122 
DISL,ioos:station:DISL:KATA:1,2017-08-03T07:30:00Z,30.2583,-88.2131,65.06,1111122 
DISL,ioos:station:DISL:KATA:1,2017-08-03T08:00:00Z,30.2583,-88.2131,65.72,1111122 
DISL,ioos:station:DISL:KATA:1,2017-08-03T08:30:00Z,30.2583,-88.2131,71.99,1111122 
DISL,ioos:station:DISL:KATA:1,2017-08-03T09:00:00Z,30.2583,-88.2131,78.64,1111122 
DISL,ioos:station:DISL:KATA:1,2017-08-03T09:30:00Z,30.2583,-88.2131,82.1,1111122 
DISL,ioos:station:DISL:KATA:1,2017-08-03T10:00:00Z,30.2583,-88.2131,86.9,1111122 
DISL,ioos:station:DISL:KATA:1,2017-08-03T10:30:00Z,30.2583,-88.2131,87.3,1111122 
DISL,ioos:station:DISL:KATA:1,2017-08-03T11:00:00Z,30.2583,-88.2131,85.0,1111122 
DISL,ioos:station:DISL:KATA:1,2017-08-03T11:30:00Z,30.2583,-88.2131,85.5,1111122 
DISL,ioos:station:DISL:KATA:1,2017-08-03T12:00:00Z,30.2583,-88.2131,86.4,1111122 
DISL,ioos:station:DISL:KATA:1,2017-08-03T12:30:00Z,30.2583,-88.2131,88.6,1111122 
DISL,ioos:station:DISL:KATA:1,2017-08-03T13:00:00Z,30.2583,-88.2131,89.6,1111122 
DISL,ioos:station:DISL:KATA:1,2017-08-03T13:30:00Z,30.2583,-88.2131,87.5,1111122 
DISL,ioos:station:DISL:KATA:1,2017-08-03T14:00:00Z,30.2583,-88.2131,77.61,1111122 
DISL,ioos:station:DISL:KATA:1,2017-08-03T14:30:00Z,30.2583,-88.2131,78.83,1111122 
DISL,ioos:station:DISL:KATA:1,2017-08-03T15:00:00Z,30.2583,-88.2131,71.95,1111122 
DISL,ioos:station:DISL:KATA:1,2017-08-03T15:30:00Z,30.2583,-88.2131,76.15,1111122 
DISL,ioos:station:DISL:KATA:1,2017-08-03T16:00:00Z,30.2583,-88.2131,70.66,1111122 
DISL,ioos:station:DISL:KATA:1,2017-08-03T16:30:00Z,30.2583,-88.2131,73.1,1111122 
DISL,ioos:station:DISL:KATA:1,2017-08-03T17:00:00Z,30.2583,-88.2131,79.0,1111122 
DISL,ioos:station:DISL:KATA:1,2017-08-03T17:30:00Z,30.2583,-88.2131,84.3,1111122 
DISL,ioos:station:DISL:KATA:1,2017-08-03T18:00:00Z,30.2583,-88.2131,85.8,1111122 
DISL,ioos:station:DISL:KATA:1,2017-08-03T18:30:00Z,30.2583,-88.2131,87.7,1111122 
DISL,ioos:station:DISL:KATA:1,2017-08-03T19:00:00Z,30.2583,-88.2131,87.1,1111122 
DISL,ioos:station:DISL:KATA:1,2017-08-03T19:30:00Z,30.2583,-88.2131,87.0,1111122 
DISL,ioos:station:DISL:KATA:1,2017-08-03T20:00:00Z,30.2583,-88.2131,89.3,1111122 
DISL,ioos:station:DISL:KATA:1,2017-08-03T20:30:00Z,30.2583,-88.2131,89.8,1111122 
DISL,ioos:station:DISL:KATA:1,2017-08-03T21:00:00Z,30.2583,-88.2131,89.4,1111122 
DISL,ioos:station:DISL:KATA:1,2017-08-03T21:30:00Z,30.2583,-88.2131,88.9,1111122 
DISL,ioos:station:DISL:KATA:1,2017-08-03T22:00:00Z,30.2583,-88.2131,88.1,1111122 
DISL,ioos:station:DISL:KATA:1,2017-08-03T22:30:00Z,30.2583,-88.2131,88.8,1111122 
DISL,ioos:station:DISL:KATA:1,2017-08-03T23:00:00Z,30.2583,-88.2131,88.2,1111122 
DISL,ioos:station:DISL:KATA:1,2017-08-03T23:30:00Z,30.2583,-88.2131,88.4,1111122 
DISL,ioos:station:DISL:KATA:1,2017-08-04T00:00:00Z,30.2583,-88.2131,88.4,1111122 
DISL,ioos:station:DISL:KATA:1,2017-08-04T00:30:00Z,30.2583,-88.2131,89.0,1111122 
DISL,ioos:station:DISL:KATA:1,2017-08-04T01:00:00Z,30.2583,-88.2131,89.2,1111122 
DISL,ioos:station:DISL:KATA:1,2017-08-04T01:30:00Z,30.2583,-88.2131,90.5,1111122 
DISL,ioos:station:DISL:KATA:1,2017-08-04T02:00:00Z,30.2583,-88.2131,82.7,1111122 
DISL,ioos:station:DISL:KATA:1,2017-08-04T02:30:00Z,30.2583,-88.2131,82.3,1111122 
DISL,ioos:station:DISL:KATA:1,2017-08-04T03:00:00Z,30.2583,-88.2131,79.25,1111122 
DISL,ioos:station:DISL:KATA:1,2017-08-04T03:30:00Z,30.2583,-88.2131,79.65,1111122 
DISL,ioos:station:DISL:KATA:1,2017-08-04T04:00:00Z,30.2583,-88.2131,78.94,1111122 
DISL,ioos:station:DISL:KATA:1,2017-08-04T04:30:00Z,30.2583,-88.2131,81.3,1111122 
DISL,ioos:station:DISL:KATA:1,2017-08-04T05:00:00Z,30.2583,-88.2131,83.7,1111122 
DISL,ioos:station:DISL:KATA:1,2017-08-04T05:30:00Z,30.2583,-88.2131,82.0,1111122 
DISL,ioos:station:DISL:KATA:1,2017-08-04T06:00:00Z,30.2583,-88.2131,81.6,1111122 
DISL,ioos:station:DISL:KATA:1,2017-08-04T06:30:00Z,30.2583,-88.2131,82.0,1111122 
DISL,ioos:station:DISL:KATA:1,2017-08-04T07:00:00Z,30.2583,-88.2131,83.0,1111122 
DISL,ioos:station:DISL:KATA:1,2017-08-04T07:30:00Z,30.2583,-88.2131,84.1,1111122 
DISL,ioos:station:DISL:KATA:1,2017-08-04T08:00:00Z,30.2583,-88.2131,87.1,1111122 
DISL,ioos:station:DISL:KATA:1,2017-08-04T08:30:00Z,30.2583,-88.2131,84.9,1111122 
DISL,ioos:station:DISL:KATA:1,2017-08-04T09:00:00Z,30.2583,-88.2131,85.3,1111122 
DISL,ioos:station:DISL:KATA:1,2017-08-04T09:30:00Z,30.2583,-88.2131,84.3,1111122 
DISL,ioos:station:DISL:KATA:1,2017-08-04T10:00:00Z,30.2583,-88.2131,84.0,1111122 
DISL,ioos:station:DISL:KATA:1,2017-08-04T10:30:00Z,30.2583,-88.2131,84.5,1111122 
DISL,ioos:station:DISL:KATA:1,2017-08-04T11:00:00Z,30.2583,-88.2131,85.1,1111122 
DISL,ioos:station:DISL:KATA:1,2017-08-04T11:30:00Z,30.2583,-88.2131,85.2,1111122 
DISL,ioos:station:DISL:KATA:1,2017-08-04T12:00:00Z,30.2583,-88.2131,85.3,1111122 
DISL,ioos:station:DISL:KATA:1,2017-08-04T12:30:00Z,30.2583,-88.2131,87.7,1111122 
DISL,ioos:station:DISL:KATA:1,2017-08-04T13:00:00Z,30.2583,-88.2131,93.5,1111122 
DISL,ioos:station:DISL:KATA:1,2017-08-04T13:30:00Z,30.2583,-88.2131,93.5,1111122 
DISL,ioos:station:DISL:KATA:1,2017-08-04T14:00:00Z,30.2583,-88.2131,95.2,1111122 
DISL,ioos:station:DISL:KATA:1,2017-08-04T14:30:00Z,30.2583,-88.2131,96.8,1111122 
DISL,ioos:station:DISL:KATA:1,2017-08-04T15:00:00Z,30.2583,-88.2131,97.4,1111122 
DISL,ioos:station:DISL:KATA:1,2017-08-04T15:30:00Z,30.2583,-88.2131,95.9,1111122 
DISL,ioos:station:DISL:KATA:1,2017-08-04T16:00:00Z,30.2583,-88.2131,96.1,1111122 
DISL,ioos:station:DISL:KATA:1,2017-08-04T16:30:00Z,30.2583,-88.2131,91.8,1111122 
DISL,ioos:station:DISL:KATA:1,2017-08-04T17:00:00Z,30.2583,-88.2131,92.8,1111122 
DISL,ioos:station:DISL:KATA:1,2017-08-04T17:30:00Z,30.2583,-88.2131,89.7,1111122 
DISL,ioos:station:DISL:KATA:1,2017-08-04T18:00:00Z,30.2583,-88.2131,87.1,1111122 
DISL,ioos:station:DISL:KATA:1,2017-08-04T18:30:00Z,30.2583,-88.2131,88.0,1111122 
DISL,ioos:station:DISL:KATA:1,2017-08-04T19:00:00Z,30.2583,-88.2131,88.1,1111122 
DISL,ioos:station:DISL:KATA:1,2017-08-04T19:30:00Z,30.2583,-88.2131,87.2,1111122 
DISL,ioos:station:DISL:KATA:1,2017-08-04T20:00:00Z,30.2583,-88.2131,85.9,1111122 
DISL,ioos:station:DISL:KATA:1,2017-08-04T20:30:00Z,30.2583,-88.2131,87.3,1111122 
DISL,ioos:station:DISL:KATA:1,2017-08-04T21:00:00Z,30.2583,-88.2131,88.2,1111122 
DISL,ioos:station:DISL:KATA:1,2017-08-04T21:30:00Z,30.2583,-88.2131,89.3,1111122 
DISL,ioos:station:DISL:KATA:1,2017-08-04T22:00:00Z,30.2583,-88.2131,89.9,1111122 
DISL,ioos:station:DISL:KATA:1,2017-08-04T22:30:00Z,30.2583,-88.2131,90.6,1111122 
DISL,ioos:station:DISL:KATA:1,2017-08-04T23:00:00Z,30.2583,-88.2131,89.8,1111122 
DISL,ioos:station:DISL:KATA:1,2017-08-04T23:30:00Z,30.2583,-88.2131,87.1,1111122 
DISL,ioos:station:DISL:KATA:1,2017-08-05T00:00:00Z,30.2583,-88.2131,88.5,1111122 
DISL,ioos:station:DISL:KATA:1,2017-08-05T00:30:00Z,30.2583,-88.2131,90.8,1111122 
DISL,ioos:station:DISL:KATA:1,2017-08-05T01:00:00Z,30.2583,-88.2131,89.2,1111122 
DISL,ioos:station:DISL:KATA:1,2017-08-05T01:30:00Z,30.2583,-88.2131,86.5,1111122 
DISL,ioos:station:DISL:KATA:1,2017-08-05T02:00:00Z,30.2583,-88.2131,87.1,1111122 
DISL,ioos:station:DISL:KATA:1,2017-08-05T02:30:00Z,30.2583,-88.2131,88.5,1111122 
DISL,ioos:station:DISL:KATA:1,2017-08-05T03:00:00Z,30.2583,-88.2131,90.1,1111122 
DISL,ioos:station:DISL:KATA:1,2017-08-05T03:30:00Z,30.2583,-88.2131,89.1,1111122 
DISL,ioos:station:DISL:KATA:1,2017-08-05T04:00:00Z,30.2583,-88.2131,89.0,1111122 
DISL,ioos:station:DISL:KATA:1,2017-08-05T04:30:00Z,30.2583,-88.2131,89.1,1111122 
DISL,ioos:station:DISL:KATA:1,2017-08-05T05:00:00Z,30.2583,-88.2131,87.7,1111122 
DISL,ioos:station:DISL:KATA:1,2017-08-05T05:30:00Z,30.2583,-88.2131,87.9,1111122 
DISL,ioos:station:DISL:KATA:1,2017-08-05T06:00:00Z,30.2583,-88.2131,89.1,1111122 
DISL,ioos:station:DISL:KATA:1,2017-08-05T06:30:00Z,30.2583,-88.2131,89.7,1111122 
DISL,ioos:station:DISL:KATA:1,2017-08-05T07:00:00Z,30.2583,-88.2131,90.7,1111122 
DISL,ioos:station:DISL:KATA:1,2017-08-05T07:30:00Z,30.2583,-88.2131,92.3,1111122 
DISL,ioos:station:DISL:KATA:1,2017-08-05T08:00:00Z,30.2583,-88.2131,90.3,1111122 
DISL,ioos:station:DISL:KATA:1,2017-08-05T08:30:00Z,30.2583,-88.2131,90.5,1111122 
DISL,ioos:station:DISL:KATA:1,2017-08-05T09:00:00Z,30.2583,-88.2131,93.6,1111122 
DISL,ioos:station:DISL:KATA:1,2017-08-05T09:30:00Z,30.2583,-88.2131,95.0,1111122 
DISL,ioos:station:DISL:KATA:1,2017-08-05T10:00:00Z,30.2583,-88.2131,94.6,1111122 
DISL,ioos:station:DISL:KATA:1,2017-08-05T10:30:00Z,30.2583,-88.2131,93.2,1111122 
DISL,ioos:station:DISL:KATA:1,2017-08-05T11:00:00Z,30.2583,-88.2131,93.4,1111122 
DISL,ioos:station:DISL:KATA:1,2017-08-05T11:30:00Z,30.2583,-88.2131,93.7,1111122 
DISL,ioos:station:DISL:KATA:1,2017-08-05T12:00:00Z,30.2583,-88.2131,93.8,1111122 
DISL,ioos:station:DISL:KATA:1,2017-08-05T12:30:00Z,30.2583,-88.2131,93.4,1111122 
DISL,ioos:station:DISL:KATA:1,2017-08-05T13:00:00Z,30.2583,-88.2131,93.5,1111122 
DISL,ioos:station:DISL:KATA:1,2017-08-05T13:30:00Z,30.2583,-88.2131,95.2,1111122 
DISL,ioos:station:DISL:KATA:1,2017-08-05T14:00:00Z,30.2583,-88.2131,96.7,1111122 
DISL,ioos:station:DISL:KATA:1,2017-08-05T14:30:00Z,30.2583,-88.2131,96.3,1111122 
DISL,ioos:station:DISL:KATA:1,2017-08-05T15:00:00Z,30.2583,-88.2131,93.4,1111122 
DISL,ioos:station:DISL:KATA:1,2017-08-05T15:30:00Z,30.2583,-88.2131,92.9,1111122 
DISL,ioos:station:DISL:KATA:1,2017-08-05T16:00:00Z,30.2583,-88.2131,91.5,1111122 
DISL,ioos:station:DISL:KATA:1,2017-08-05T16:30:00Z,30.2583,-88.2131,94.3,1111122 
DISL,ioos:station:DISL:KATA:1,2017-08-05T17:00:00Z,30.2583,-88.2131,90.5,1111122 
DISL,ioos:station:DISL:KATA:1,2017-08-05T17:30:00Z,30.2583,-88.2131,91.8,1111122 
DISL,ioos:station:DISL:KATA:1,2017-08-05T18:00:00Z,30.2583,-88.2131,81.0,1111122 
DISL,ioos:station:DISL:KATA:1,2017-08-05T18:30:00Z,30.2583,-88.2131,80.7,1111122 
DISL,ioos:station:DISL:KATA:1,2017-08-05T19:00:00Z,30.2583,-88.2131,78.93,1111122 
DISL,ioos:station:DISL:KATA:1,2017-08-05T19:30:00Z,30.2583,-88.2131,78.45,1111122 
DISL,ioos:station:DISL:KATA:1,2017-08-05T20:00:00Z,30.2583,-88.2131,79.2,1111122 
DISL,ioos:station:DISL:KATA:1,2017-08-05T20:30:00Z,30.2583,-88.2131,78.83,1111122 
DISL,ioos:station:DISL:KATA:1,2017-08-05T21:00:00Z,30.2583,-88.2131,84.0,1111122 
DISL,ioos:station:DISL:KATA:1,2017-08-05T21:30:00Z,30.2583,-88.2131,83.5,1111122 
DISL,ioos:station:DISL:KATA:1,2017-08-05T22:00:00Z,30.2583,-88.2131,85.4,1111122 
DISL,ioos:station:DISL:KATA:1,2017-08-05T22:30:00Z,30.2583,-88.2131,84.5,1111122 
DISL,ioos:station:DISL:KATA:1,2017-08-05T23:00:00Z,30.2583,-88.2131,85.3,1111122 
DISL,ioos:station:DISL:KATA:1,2017-08-05T23:30:00Z,30.2583,-88.2131,83.0,1111122 
DISL,ioos:station:DISL:KATA:1,2017-08-06T00:00:00Z,30.2583,-88.2131,84.8,1111122 
DISL,ioos:station:DISL:KATA:1,2017-08-06T00:30:00Z,30.2583,-88.2131,84.1,1111122 
DISL,ioos:station:DISL:KATA:1,2017-08-06T01:00:00Z,30.2583,-88.2131,83.8,1111122 
DISL,ioos:station:DISL:KATA:1,2017-08-06T01:30:00Z,30.2583,-88.2131,83.8,1111122 
DISL,ioos:station:DISL:KATA:1,2017-08-06T02:00:00Z,30.2583,-88.2131,83.5,1111122 
DISL,ioos:station:DISL:KATA:1,2017-08-06T02:30:00Z,30.2583,-88.2131,84.4,1111122 
DISL,ioos:station:DISL:KATA:1,2017-08-06T03:00:00Z,30.2583,-88.2131,86.9,1111122 
DISL,ioos:station:DISL:KATA:1,2017-08-06T03:30:00Z,30.2583,-88.2131,88.1,1111122 
DISL,ioos:station:DISL:KATA:1,2017-08-06T04:00:00Z,30.2583,-88.2131,85.6,1111122 
DISL,ioos:station:DISL:KATA:1,2017-08-06T04:30:00Z,30.2583,-88.2131,82.3,1111122 
DISL,ioos:station:DISL:KATA:1,2017-08-06T05:00:00Z,30.2583,-88.2131,80.7,1111122 
DISL,ioos:station:DISL:KATA:1,2017-08-06T05:30:00Z,30.2583,-88.2131,86.4,1111122 
DISL,ioos:station:DISL:KATA:1,2017-08-06T06:00:00Z,30.2583,-88.2131,86.3,1111122 
DISL,ioos:station:DISL:KATA:1,2017-08-06T06:30:00Z,30.2583,-88.2131,87.4,1111122 
DISL,ioos:station:DISL:KATA:1,2017-08-06T07:00:00Z,30.2583,-88.2131,86.7,1111122 
DISL,ioos:station:DISL:KATA:1,2017-08-06T07:30:00Z,30.2583,-88.2131,87.7,1111122 
DISL,ioos:station:DISL:KATA:1,2017-08-06T08:00:00Z,30.2583,-88.2131,85.7,1111122 
DISL,ioos:station:DISL:KATA:1,2017-08-06T08:30:00Z,30.2583,-88.2131,85.6,1111122 
DISL,ioos:station:DISL:KATA:1,2017-08-06T09:00:00Z,30.2583,-88.2131,85.8,1111122 
DISL,ioos:station:DISL:KATA:1,2017-08-06T09:30:00Z,30.2583,-88.2131,83.4,1111122 
DISL,ioos:station:DISL:KATA:1,2017-08-06T10:00:00Z,30.2583,-88.2131,85.3,1111122 
DISL,ioos:station:DISL:KATA:1,2017-08-06T10:30:00Z,30.2583,-88.2131,84.7,1111122 
DISL,ioos:station:DISL:KATA:1,2017-08-06T11:00:00Z,30.2583,-88.2131,85.2,1111122 
DISL,ioos:station:DISL:KATA:1,2017-08-06T11:30:00Z,30.2583,-88.2131,84.6,1111122 
DISL,ioos:station:DISL:KATA:1,2017-08-06T12:00:00Z,30.2583,-88.2131,86.3,1111122 
DISL,ioos:station:DISL:KATA:1,2017-08-06T12:30:00Z,30.2583,-88.2131,85.0,1111122 
DISL,ioos:station:DISL:KATA:1,2017-08-06T13:00:00Z,30.2583,-88.2131,83.3,1111122 
DISL,ioos:station:DISL:KATA:1,2017-08-06T13:30:00Z,30.2583,-88.2131,82.8,1111122 
DISL,ioos:station:DISL:KATA:1,2017-08-06T14:00:00Z,30.2583,-88.2131,83.3,1111122 
DISL,ioos:station:DISL:KATA:1,2017-08-06T14:30:00Z,30.2583,-88.2131,84.3,1111122 
DISL,ioos:station:DISL:KATA:1,2017-08-06T15:00:00Z,30.2583,-88.2131,84.4,1111122 
DISL,ioos:station:DISL:KATA:1,2017-08-06T15:30:00Z,30.2583,-88.2131,83.3,1111122 
DISL,ioos:station:DISL:KATA:1,2017-08-06T16:00:00Z,30.2583,-88.2131,83.7,1111122 
DISL,ioos:station:DISL:KATA:1,2017-08-06T16:30:00Z,30.2583,-88.2131,83.7,1111122 
DISL,ioos:station:DISL:KATA:1,2017-08-06T17:00:00Z,30.2583,-88.2131,83.1,1111122 
DISL,ioos:station:DISL:KATA:1,2017-08-06T17:30:00Z,30.2583,-88.2131,83.9,1111122 
DISL,ioos:station:DISL:KATA:1,2017-08-06T18:00:00Z,30.2583,-88.2131,83.2,1111122 
DISL,ioos:station:DISL:KATA:1,2017-08-06T18:30:00Z,30.2583,-88.2131,86.0,1111122 
DISL,ioos:station:DISL:KATA:1,2017-08-06T19:00:00Z,30.2583,-88.2131,85.1,1111122 
DISL,ioos:station:DISL:KATA:1,2017-08-06T19:30:00Z,30.2583,-88.2131,85.8,1111122 
DISL,ioos:station:DISL:KATA:1,2017-08-06T20:00:00Z,30.2583,-88.2131,82.2,1111122 
DISL,ioos:station:DISL:KATA:1,2017-08-06T20:30:00Z,30.2583,-88.2131,78.51,1111122 
DISL,ioos:station:DISL:KATA:1,2017-08-06T21:00:00Z,30.2583,-88.2131,80.7,1111122 
DISL,ioos:station:DISL:KATA:1,2017-08-06T21:30:00Z,30.2583,-88.2131,79.39,1111122 
DISL,ioos:station:DISL:KATA:1,2017-08-06T22:00:00Z,30.2583,-88.2131,80.2,1111122 
DISL,ioos:station:DISL:KATA:1,2017-08-06T22:30:00Z,30.2583,-88.2131,82.8,1111122 
DISL,ioos:station:DISL:KATA:1,2017-08-06T23:00:00Z,30.2583,-88.2131,84.1,1111122 
DISL,ioos:station:DISL:KATA:1,2017-08-06T23:30:00Z,30.2583,-88.2131,83.4,1111122 
DISL,ioos:station:DISL:KATA:1,2017-08-07T00:00:00Z,30.2583,-88.2131,83.4,1111122 
DISL,ioos:station:DISL:KATA:1,2017-08-07T00:30:00Z,30.2583,-88.2131,83.5,1111122 